{"data":{"norad_id":52615,"epoch":"2026-09-20T03:32:17.757600Z","epoch_age_seconds":93727,"freshness":"FRESH","line1":"1 52615U 22052T   26263.14742775  .00000703  00000+0  31057-4 0  9995","line2":"2 52615  53.1584 117.7890 0000980  96.7703 263.3412 15.35401325240319","mean_motion":15.35401325,"eccentricity":9.8e-5,"inclination_deg":53.1584,"raan_deg":117.789,"arg_perigee_deg":96.7703,"mean_anomaly_deg":263.3412,"bstar":3.1057e-5,"rev_number":24031,"period_min":93.786554469725,"perigee_km":459.05859799916,"apogee_km":460.3988196781,"semimajor_km":6837.8657088386,"source":"CELESTRAK","updated_at":"2026-09-20T09:00:40.070867Z"}}